Location: Bermeries
(50.2863°N, 3.7551°E)
Time: 13:56:34
(UTC+00:00)

Orbcomm G2 (FM04) - Visible Passes

Search period start: 04 October 2024 00:00
Search period end: 14 October 2024 00:00
Orbit: 750 x 811 km, 108.0° (Epoch: 03 October)

Date Brightness Start Highest point End Pass type
(mag) Time Alt. Az. Time Alt. Az. Time Alt. Az.
04 Oct 9.0 18:16:32 14° E 18:20:06 30° NE 18:24:31 10° NNW visible
04 Oct 8.3 19:57:03 52° SSW 19:58:02 63° WSW 20:03:09 10° NW visible
04 Oct 10.8 21:37:35 10° W 21:37:35 10° W 21:38:07 10° W visible
05 Oct 9.6 17:44:49 10° E 17:48:22 19° NE 17:51:58 10° N visible
05 Oct 7.9 19:24:26 47° SE 19:25:52 73° ENE 19:31:01 10° NNW visible
05 Oct 10.0 21:04:58 21° W 21:04:58 21° W 21:08:26 10° NW visible
06 Oct 8.6 18:51:48 28° E 18:53:52 42° NE 18:58:42 10° NNW visible
06 Oct 9.1 20:32:19 40° WSW 20:32:19 40° WSW 20:36:56 10° NW visible
07 Oct 9.2 18:19:09 16° E 18:22:00 26° NE 18:26:13 10° NNW visible
07 Oct 8.0 19:59:40 75° SW 19:59:47 76° WSW 20:04:58 10° NNW visible
07 Oct 10.7 21:40:11 12° W 21:40:11 12° W 21:41:15 10° WNW visible
08 Oct 9.7 17:47:01 10° ENE 17:50:17 17° NE 17:53:34 10° N visible
08 Oct 8.0 19:26:58 56° E 19:27:39 61° NE 19:32:44 10° NNW visible
08 Oct 10.0 21:07:30 23° W 21:07:30 23° W 21:10:28 10° NW visible
09 Oct 8.8 18:54:15 30° E 18:55:39 36° NE 19:00:20 10° NNW visible
09 Oct 9.1 20:34:47 42° WNW 20:34:47 42° WNW 20:38:45 10° NW visible
10 Oct 9.4 18:21:32 17° ENE 18:23:48 23° NE 18:27:47 10° N visible
10 Oct 8.2 20:02:04 70° NNW 20:02:04 70° NNW 20:06:39 10° NNW visible
10 Oct 10.7 21:42:34 13° WNW 21:42:34 13° WNW 21:43:33 10° WNW visible
11 Oct 9.9 17:49:08 10° ENE 17:52:05 16° NNE 17:55:01 10° N visible
11 Oct 8.3 19:29:19 51° NE 19:29:19 51° NE 19:34:20 10° NNW visible
11 Oct 10.1 21:09:49 23° WNW 21:09:49 23° WNW 21:12:18 10° NW visible
12 Oct 8.9 18:56:31 30° ENE 18:57:20 31° NE 19:01:51 10° NNW visible
12 Oct 9.3 20:37:02 39° NW 20:37:02 39° NW 20:40:25 10° NW visible
13 Oct 9.6 18:23:43 17° ENE 18:25:30 20° NE 18:29:12 10° N visible
13 Oct 8.6 20:04:14 52° NNW 20:04:14 52° NNW 20:08:12 10° NNW visible
13 Oct 10.8 21:44:45 13° WNW 21:44:45 13° WNW 21:45:32 10° WNW visible
